Orbital Elements at Epoch 2459200.5 (2020-Dec-17.0) TDB
Reference: JPL 41 (heliocentric ecliptic J2000)
Element | Value | Uncertainty (1-sigma) | Units |
e | .02217620415505456 | 3.2706e-08 | |
a | 3.231641226373264 | 1.6503e-08 | au |
q | 3.159975690781319 | 1.0433e-07 | au |
i | 3.52604235379603 | 3.7534e-06 | deg |
node | 32.27151839728768 | 5.2097e-05 | deg |
peri | 12.80748855485177 | 9.3582e-05 | deg |
M | 183.2718597969558 | 7.836e-05 | deg |
tp | 2460242.184838244882 (2023-Oct-24.68483824) | 0.0004639 | TDB |
period | 2121.940180761876 5.81 | 1.6254e-05 4.45e-08 | d yr |
n | .1696560549933802 | 1.2996e-09 | deg/d |
Q | 3.303306761965208 | 1.6869e-08 | au |
|
| | Orbit Determination Parameters
Additional Information
|